sat.trackr.live / text

‹ back to catalog

STARLINK-35426

NORAD 66441 · 2025-259V

PAYLOAD ACTIVE UNKNOWN

§ Identity

Operator
Country
US
Launch date
2025-11-11
Launch site
AFETR
Launch vehicle
Mass (kg)
RCS (m²)

Purposes: comms

External: N2YO · Heavens-Above · Gunter

§ Orbital elements

Epoch: 2026-09-20T16:18:32.243904Z

Period
94.27 min
Inclination
43.0011°
Eccentricity
0.0001567
Mean motion
15.27593693 rev/d
Perigee alt
481.9 km
Apogee alt
484.1 km
Semi-major
6,861.1 km
B*
4.1989e-4
RAAN
253.0409°
Arg perigee
274.6034°
Mean anomaly
85.4639°
Rev number
4,931

§ Raw data

STARLINK-354261 66441U 25259V   26263.67953986  .00011315  00000+0  41989-3 0  99902 66441  43.0011 253.0409 0001567 274.6034  85.4639 15.27593693 49312

JSON: /api/v1/satellites/66441 · /tle

For live sub-satellite position, see the globe view (requires WebGL).

§ Visibility from observer

Set your observer location to see the next 7 days of passes ≥ 10°. The values pass through the URL so the page stays shareable.

No JS? Fill the form by hand. The geolocation button needs JavaScript.